Time,TemperatureF,DewpointF,PressureIn,WindDirection,WindDirectionDegrees,WindSpeedMPH,WindSpeedGustMPH,Humidity,HourlyPrecipIn,Conditions,Clouds,dailyrainin,SolarRadiationWatts/m^2,SoftwareType,DateUTC
2013-06-27 00:01:00,73.8,69.7,29.82,NE,55,0.0,2.0,87,0.00,,,0.00,0,Wunderground v.1.15,2013-06-27 04:01:00,
2013-06-27 00:02:00,73.8,69.7,29.82,ENE,57,3.0,3.0,87,0.00,,,0.00,0,Wunderground v.1.15,2013-06-27 04:02:00,
2013-06-27 00:04:00,73.7,69.6,29.82,ENE,58,1.0,3.0,87,0.00,,,0.00,0,Wunderground v.1.15,2013-06-27 04:04:00,
2013-06-27 00:05:00,73.7,69.2,29.82,ENE,58,0.0,3.0,86,0.00,,,0.00,0,Wunderground v.1.15,2013-06-27 04:05:00,
2013-06-27 00:10:00,73.5,69.1,29.82,ENE,58,0.0,0.0,86,0.00,,,0.00,0,Wunderground v.1.15,2013-06-27 04:10:00,
2013-06-27 00:15:00,73.4,69.0,29.82,ENE,58,0.0,0.0,86,0.00,,,0.00,0,Wunderground v.1.15,2013-06-27 04:15:00,
2013-06-27 00:19:00,73.3,69.2,29.81,ENE,58,0.0,0.0,87,0.00,,,0.00,0,Wunderground v.1.15,2013-06-27 04:19:00,
2013-06-27 00:24:00,73.4,69.3,29.81,ENE,58,0.0,0.0,87,0.00,,,0.00,0,Wunderground v.1.15,2013-06-27 04:24:00,
2013-06-27 00:29:00,73.3,68.9,29.81,ENE,58,0.0,0.0,86,0.00,,,0.00,0,Wunderground v.1.15,2013-06-27 04:29:00,
2013-06-27 00:35:00,73.3,69.2,29.80,ENE,58,0.0,0.0,87,0.00,,,0.00,0,Wunderground v.1.15,2013-06-27 04:35:00,
2013-06-27 00:40:00,73.1,69.0,29.80,ENE,58,0.0,0.0,87,0.00,,,0.00,0,Wunderground v.1.15,2013-06-27 04:40:00,
2013-06-27 00:45:00,72.9,68.8,29.80,ENE,58,0.0,0.0,87,0.00,,,0.00,0,Wunderground v.1.15,2013-06-27 04:45:00,
2013-06-27 00:51:00,72.7,68.6,29.80,ENE,58,0.0,0.0,87,0.00,,,0.00,0,Wunderground v.1.15,2013-06-27 04:51:00,
2013-06-27 00:56:00,72.6,68.5,29.79,ENE,58,0.0,0.0,87,0.00,,,0.00,0,Wunderground v.1.15,2013-06-27 04:56:00,
2013-06-27 01:02:00,72.7,68.6,29.79,ENE,58,0.0,0.0,87,0.00,,,0.00,0,Wunderground v.1.15,2013-06-27 05:02:00,
2013-06-27 01:07:00,72.6,68.5,29.78,ENE,58,0.0,0.0,87,0.00,,,0.00,0,Wunderground v.1.15,2013-06-27 05:07:00,
2013-06-27 01:14:00,72.5,68.4,29.78,ENE,58,0.0,0.0,87,0.00,,,0.00,0,Wunderground v.1.15,2013-06-27 05:14:00,
2013-06-27 01:19:00,72.5,68.4,29.78,ENE,58,0.0,0.0,87,0.00,,,0.00,0,Wunderground v.1.15,2013-06-27 05:19:00,
2013-06-27 01:25:00,72.3,68.2,29.78,ENE,58,0.0,0.0,87,0.00,,,0.00,0,Wunderground v.1.15,2013-06-27 05:25:00,
2013-06-27 01:31:00,72.2,68.1,29.78,ENE,58,0.0,0.0,87,0.00,,,0.00,0,Wunderground v.1.15,2013-06-27 05:31:00,
2013-06-27 01:37:00,72.3,68.5,29.78,ENE,58,0.0,0.0,88,0.00,,,0.00,0,Wunderground v.1.15,2013-06-27 05:37:00,
2013-06-27 01:43:00,72.3,68.2,29.78,ENE,58,0.0,0.0,87,0.00,,,0.00,0,Wunderground v.1.15,2013-06-27 05:43:00,
2013-06-27 01:49:00,72.3,68.2,29.78,ENE,58,0.0,0.0,87,0.00,,,0.00,0,Wunderground v.1.15,2013-06-27 05:49:00,
2013-06-27 01:54:00,72.2,68.1,29.78,ENE,58,0.0,0.0,87,0.00,,,0.00,0,Wunderground v.1.15,2013-06-27 05:54:00,
2013-06-27 02:00:00,72.2,68.4,29.77,ENE,58,0.0,0.0,88,0.00,,,0.00,0,Wunderground v.1.15,2013-06-27 06:00:00,
2013-06-27 02:05:00,72.2,68.4,29.77,ENE,58,0.0,0.0,88,0.00,,,0.00,0,Wunderground v.1.15,2013-06-27 06:05:00,
2013-06-27 02:10:00,72.3,68.5,29.77,ENE,58,0.0,0.0,88,0.00,,,0.00,0,Wunderground v.1.15,2013-06-27 06:10:00,
2013-06-27 02:15:00,72.2,68.4,29.77,ENE,58,0.0,0.0,88,0.00,,,0.00,0,Wunderground v.1.15,2013-06-27 06:15:00,
2013-06-27 02:20:00,72.1,68.0,29.77,ENE,58,0.0,0.0,87,0.00,,,0.00,0,Wunderground v.1.15,2013-06-27 06:20:00,
2013-06-27 02:25:00,72.1,68.3,29.77,ENE,58,0.0,0.0,88,0.00,,,0.00,0,Wunderground v.1.15,2013-06-27 06:25:00,
2013-06-27 02:30:00,72.0,68.2,29.76,ENE,58,0.0,0.0,88,0.00,,,0.00,0,Wunderground v.1.15,2013-06-27 06:30:00,
2013-06-27 02:35:00,72.0,68.2,29.76,ENE,58,0.0,0.0,88,0.00,,,0.00,0,Wunderground v.1.15,2013-06-27 06:35:00,
2013-06-27 02:40:00,72.0,68.2,29.76,ENE,58,0.0,0.0,88,0.00,,,0.00,0,Wunderground v.1.15,2013-06-27 06:40:00,
2013-06-27 02:45:00,71.9,68.2,29.76,ENE,58,0.0,0.0,88,0.00,,,0.00,0,Wunderground v.1.15,2013-06-27 06:45:00,
2013-06-27 02:50:00,71.7,68.0,29.76,ENE,58,0.0,0.0,88,0.00,,,0.00,0,Wunderground v.1.15,2013-06-27 06:50:00,
2013-06-27 02:55:00,71.7,68.0,29.76,ENE,58,0.0,0.0,88,0.00,,,0.00,0,Wunderground v.1.15,2013-06-27 06:55:00,
2013-06-27 03:00:00,71.6,67.9,29.76,ENE,58,0.0,0.0,88,0.00,,,0.00,0,Wunderground v.1.15,2013-06-27 07:00:00,
2013-06-27 03:05:00,71.6,67.9,29.76,ENE,58,0.0,0.0,88,0.00,,,0.00,0,Wunderground v.1.15,2013-06-27 07:05:00,
2013-06-27 03:10:00,71.6,67.9,29.76,ENE,58,0.0,0.0,88,0.00,,,0.00,0,Wunderground v.1.15,2013-06-27 07:10:00,
2013-06-27 03:15:00,71.5,67.8,29.76,ENE,58,0.0,0.0,88,0.00,,,0.00,0,Wunderground v.1.15,2013-06-27 07:15:00,
2013-06-27 03:20:00,71.6,67.9,29.76,ENE,58,0.0,0.0,88,0.00,,,0.00,0,Wunderground v.1.15,2013-06-27 07:20:00,
2013-06-27 03:25:00,71.5,67.8,29.76,ENE,58,0.0,0.0,88,0.00,,,0.00,0,Wunderground v.1.15,2013-06-27 07:25:00,
2013-06-27 03:30:00,71.4,67.7,29.76,ENE,58,0.0,0.0,88,0.00,,,0.00,0,Wunderground v.1.15,2013-06-27 07:30:00,
2013-06-27 03:35:00,71.4,67.7,29.76,ENE,58,0.0,0.0,88,0.00,,,0.00,0,Wunderground v.1.15,2013-06-27 07:35:00,
2013-06-27 03:40:00,71.4,68.0,29.76,ENE,58,0.0,0.0,89,0.00,,,0.00,0,Wunderground v.1.15,2013-06-27 07:40:00,
2013-06-27 03:45:00,71.2,67.8,29.76,ENE,58,0.0,0.0,89,0.00,,,0.00,0,Wunderground v.1.15,2013-06-27 07:45:00,
2013-06-27 03:50:00,71.3,67.6,29.76,ENE,58,0.0,0.0,88,0.00,,,0.00,0,Wunderground v.1.15,2013-06-27 07:50:00,
2013-06-27 03:55:00,71.3,67.6,29.76,ENE,58,0.0,0.0,88,0.00,,,0.00,0,Wunderground v.1.15,2013-06-27 07:55:00,
2013-06-27 04:00:00,71.3,67.6,29.76,ENE,58,0.0,0.0,88,0.00,,,0.00,0,Wunderground v.1.15,2013-06-27 08:00:00,
2013-06-27 04:05:00,71.2,67.8,29.76,ENE,58,0.0,0.0,89,0.00,,,0.00,0,Wunderground v.1.15,2013-06-27 08:05:00,
2013-06-27 04:10:00,71.2,67.8,29.76,ENE,58,0.0,0.0,89,0.00,,,0.00,0,Wunderground v.1.15,2013-06-27 08:10:00,
2013-06-27 04:15:00,71.4,68.0,29.77,ENE,58,0.0,0.0,89,0.00,,,0.00,0,Wunderground v.1.15,2013-06-27 08:15:00,
2013-06-27 04:20:00,71.4,68.0,29.77,ENE,58,0.0,0.0,89,0.00,,,0.00,0,Wunderground v.1.15,2013-06-27 08:20:00,
2013-06-27 04:25:00,71.4,68.0,29.77,ENE,58,0.0,0.0,89,0.00,,,0.00,0,Wunderground v.1.15,2013-06-27 08:25:00,
2013-06-27 04:30:00,71.3,67.9,29.77,ENE,58,0.0,0.0,89,0.00,,,0.00,0,Wunderground v.1.15,2013-06-27 08:30:00,
2013-06-27 04:35:00,71.3,67.9,29.78,ENE,58,1.0,2.0,89,0.00,,,0.00,0,Wunderground v.1.15,2013-06-27 08:35:00,
2013-06-27 04:40:00,71.2,67.8,29.78,ENE,58,0.0,0.0,89,0.00,,,0.00,0,Wunderground v.1.15,2013-06-27 08:40:00,
2013-06-27 04:45:00,71.3,67.9,29.78,ENE,58,0.0,3.0,89,0.00,,,0.00,0,Wunderground v.1.15,2013-06-27 08:45:00,
2013-06-27 04:50:00,71.3,67.9,29.78,ENE,58,1.0,2.0,89,0.00,,,0.00,0,Wunderground v.1.15,2013-06-27 08:50:00,
2013-06-27 04:55:00,71.3,67.9,29.78,ENE,58,0.0,2.0,89,0.00,,,0.00,0,Wunderground v.1.15,2013-06-27 08:55:00,
2013-06-27 05:01:00,71.3,67.9,29.78,ENE,58,1.0,2.0,89,0.00,,,0.00,0,Wunderground v.1.15,2013-06-27 09:01:00,
2013-06-27 05:06:00,71.3,67.9,29.79,ENE,58,1.0,2.0,89,0.00,,,0.00,0,Wunderground v.1.15,2013-06-27 09:06:00,
2013-06-27 05:11:00,71.2,67.8,29.79,ENE,58,0.0,0.0,89,0.00,,,0.00,0,Wunderground v.1.15,2013-06-27 09:11:00,
2013-06-27 05:16:00,71.1,67.7,29.79,ENE,58,0.0,0.0,89,0.00,,,0.00,0,Wunderground v.1.15,2013-06-27 09:16:00,
2013-06-27 05:21:00,71.0,67.6,29.78,ENE,58,0.0,0.0,89,0.00,,,0.00,0,Wunderground v.1.15,2013-06-27 09:21:00,
2013-06-27 05:26:00,71.0,67.6,29.79,ENE,58,0.0,0.0,89,0.00,,,0.00,0,Wunderground v.1.15,2013-06-27 09:26:00,
2013-06-27 05:31:00,71.0,67.6,29.79,ENE,58,0.0,0.0,89,0.00,,,0.00,0,Wunderground v.1.15,2013-06-27 09:31:00,
2013-06-27 05:36:00,70.8,67.4,29.79,ENE,58,0.0,0.0,89,0.00,,,0.00,0,Wunderground v.1.15,2013-06-27 09:36:00,
2013-06-27 05:41:00,70.9,67.5,29.79,ENE,58,0.0,0.0,89,0.00,,,0.00,0,Wunderground v.1.15,2013-06-27 09:41:00,
2013-06-27 05:46:00,70.9,67.5,29.79,ENE,58,0.0,0.0,89,0.00,,,0.00,0,Wunderground v.1.15,2013-06-27 09:46:00,
2013-06-27 05:51:00,70.9,67.5,29.79,ENE,58,0.0,0.0,89,0.00,,,0.00,0,Wunderground v.1.15,2013-06-27 09:51:00,
2013-06-27 05:56:00,70.8,67.4,29.79,ENE,58,0.0,1.0,89,0.00,,,0.00,0,Wunderground v.1.15,2013-06-27 09:56:00,
2013-06-27 06:01:00,70.9,67.5,29.79,ENE,58,0.0,2.0,89,0.00,,,0.00,0,Wunderground v.1.15,2013-06-27 10:01:00,
2013-06-27 06:06:00,70.8,67.4,29.79,ENE,58,0.0,2.0,89,0.00,,,0.00,0,Wunderground v.1.15,2013-06-27 10:06:00,
2013-06-27 06:11:00,70.9,67.5,29.79,ENE,58,0.0,0.0,89,0.00,,,0.00,0,Wunderground v.1.15,2013-06-27 10:11:00,
2013-06-27 06:16:00,70.9,67.5,29.79,ENE,58,0.0,2.0,89,0.00,,,0.00,0,Wunderground v.1.15,2013-06-27 10:16:00,
2013-06-27 06:21:00,70.9,67.5,29.79,ENE,58,0.0,0.0,89,0.00,,,0.00,0,Wunderground v.1.15,2013-06-27 10:21:00,
2013-06-27 06:26:00,70.9,67.5,29.79,ENE,58,0.0,2.0,89,0.00,,,0.00,0,Wunderground v.1.15,2013-06-27 10:26:00,
2013-06-27 06:31:00,70.9,67.5,29.79,ENE,58,1.0,1.0,89,0.00,,,0.00,0,Wunderground v.1.15,2013-06-27 10:31:00,
2013-06-27 06:36:00,71.0,67.6,29.79,ENE,58,0.0,2.0,89,0.00,,,0.00,0,Wunderground v.1.15,2013-06-27 10:36:00,
2013-06-27 06:41:00,71.0,67.6,29.79,ENE,58,0.0,1.0,89,0.00,,,0.00,0,Wunderground v.1.15,2013-06-27 10:41:00,
2013-06-27 06:46:00,71.1,67.7,29.79,ENE,58,0.0,1.0,89,0.00,,,0.00,0,Wunderground v.1.15,2013-06-27 10:46:00,
2013-06-27 06:51:00,71.1,67.7,29.79,ENE,58,0.0,1.0,89,0.00,,,0.00,0,Wunderground v.1.15,2013-06-27 10:51:00,
2013-06-27 06:56:00,71.2,67.8,29.79,ENE,58,0.0,1.0,89,0.00,,,0.00,0,Wunderground v.1.15,2013-06-27 10:56:00,
2013-06-27 07:01:00,71.4,68.0,29.79,ENE,58,0.0,2.0,89,0.00,,,0.00,0,Wunderground v.1.15,2013-06-27 11:01:00,
2013-06-27 07:06:00,71.4,68.0,29.79,NE,34,1.0,2.0,89,0.00,,,0.00,0,Wunderground v.1.15,2013-06-27 11:06:00,
2013-06-27 07:11:00,71.5,68.1,29.79,NE,34,0.0,0.0,89,0.00,,,0.00,0,Wunderground v.1.15,2013-06-27 11:11:00,
2013-06-27 07:16:00,71.7,68.3,29.79,NE,34,0.0,1.0,89,0.00,,,0.00,0,Wunderground v.1.15,2013-06-27 11:16:00,
2013-06-27 07:21:00,71.9,68.5,29.79,NE,34,0.0,1.0,89,0.00,,,0.00,0,Wunderground v.1.15,2013-06-27 11:21:00,
2013-06-27 07:26:00,72.0,68.9,29.79,NE,34,0.0,1.0,90,0.00,,,0.00,0,Wunderground v.1.15,2013-06-27 11:26:00,
2013-06-27 07:31:00,72.5,69.1,29.79,NNE,30,0.0,4.0,89,0.00,,,0.00,0,Wunderground v.1.15,2013-06-27 11:31:00,
2013-06-27 07:36:00,72.6,69.5,29.79,NNE,31,0.0,4.0,90,0.00,,,0.00,0,Wunderground v.1.15,2013-06-27 11:36:00,
2013-06-27 07:41:00,72.8,69.4,29.78,NNE,30,0.0,0.0,89,0.00,,,0.00,0,Wunderground v.1.15,2013-06-27 11:41:00,
2013-06-27 07:46:00,73.0,69.6,29.78,NNE,29,0.0,2.0,89,0.00,,,0.00,0,Wunderground v.1.15,2013-06-27 11:46:00,
2013-06-27 07:51:00,73.4,70.0,29.78,NNE,30,2.0,2.0,89,0.00,,,0.00,0,Wunderground v.1.15,2013-06-27 11:51:00,
2013-06-27 07:56:00,73.7,70.3,29.78,NNE,30,0.0,4.0,89,0.00,,,0.00,0,Wunderground v.1.15,2013-06-27 11:56:00,
2013-06-27 08:01:00,73.9,70.5,29.78,NE,34,0.0,0.0,89,0.00,,,0.00,0,Wunderground v.1.15,2013-06-27 12:01:00,
2013-06-27 08:06:00,74.2,70.7,29.78,NE,34,0.0,3.0,89,0.00,,,0.00,0,Wunderground v.1.15,2013-06-27 12:06:00,
2013-06-27 08:11:00,74.5,71.0,29.78,NE,34,0.0,1.0,89,0.00,,,0.00,0,Wunderground v.1.15,2013-06-27 12:11:00,
2013-06-27 08:16:00,74.8,71.3,29.78,NE,34,0.0,2.0,89,0.00,,,0.00,0,Wunderground v.1.15,2013-06-27 12:16:00,
2013-06-27 08:21:00,75.0,71.5,29.78,ESE,111,1.0,5.0,89,0.00,,,0.00,0,Wunderground v.1.15,2013-06-27 12:21:00,
2013-06-27 08:26:00,75.4,71.9,29.78,ESE,112,0.0,5.0,89,0.00,,,0.00,0,Wunderground v.1.15,2013-06-27 12:26:00,
2013-06-27 08:31:00,75.7,72.2,29.78,ESE,112,4.0,4.0,89,0.00,,,0.00,0,Wunderground v.1.15,2013-06-27 12:31:00,
2013-06-27 08:36:00,75.8,72.3,29.78,ESE,112,1.0,5.0,89,0.00,,,0.00,0,Wunderground v.1.15,2013-06-27 12:36:00,
2013-06-27 08:41:00,76.0,72.2,29.78,ESE,112,0.0,1.0,88,0.00,,,0.00,0,Wunderground v.1.15,2013-06-27 12:41:00,
2013-06-27 08:47:00,76.4,72.6,29.78,ESE,112,0.0,2.0,88,0.00,,,0.00,0,Wunderground v.1.15,2013-06-27 12:47:00,
2013-06-27 08:52:00,77.0,72.8,29.78,ESE,108,0.0,3.0,87,0.00,,,0.00,0,Wunderground v.1.15,2013-06-27 12:52:00,
2013-06-27 08:57:00,77.4,73.2,29.78,East,90,3.0,5.0,87,0.00,,,0.00,0,Wunderground v.1.15,2013-06-27 12:57:00,
2013-06-27 09:02:00,77.5,72.6,29.77,East,86,0.0,3.0,85,0.00,,,0.00,0,Wunderground v.1.15,2013-06-27 13:02:00,
2013-06-27 09:07:00,77.8,72.6,29.77,ENE,71,0.0,4.0,84,0.00,,,0.00,0,Wunderground v.1.15,2013-06-27 13:07:00,
2013-06-27 09:12:00,78.1,72.9,29.77,ENE,71,0.0,2.0,84,0.00,,,0.00,0,Wunderground v.1.15,2013-06-27 13:12:00,
2013-06-27 09:17:00,78.7,73.1,29.77,ENE,71,0.0,2.0,83,0.00,,,0.00,0,Wunderground v.1.15,2013-06-27 13:17:00,
2013-06-27 09:22:00,79.1,72.8,29.77,ENE,71,3.0,3.0,81,0.00,,,0.00,0,Wunderground v.1.15,2013-06-27 13:22:00,
2013-06-27 09:27:00,79.5,72.4,29.77,ENE,71,0.0,3.0,79,0.00,,,0.00,0,Wunderground v.1.15,2013-06-27 13:27:00,
2013-06-27 09:32:00,80.0,72.1,29.77,ENE,70,2.0,4.0,77,0.00,,,0.00,0,Wunderground v.1.15,2013-06-27 13:32:00,
2013-06-27 09:37:00,80.2,71.9,29.77,ENE,69,1.0,4.0,76,0.00,,,0.00,0,Wunderground v.1.15,2013-06-27 13:37:00,
2013-06-27 09:42:00,80.4,71.3,29.77,ENE,60,0.0,4.0,74,0.00,,,0.00,0,Wunderground v.1.15,2013-06-27 13:42:00,
2013-06-27 09:47:00,80.3,70.9,29.77,ENE,60,0.0,4.0,73,0.00,,,0.00,0,Wunderground v.1.15,2013-06-27 13:47:00,
2013-06-27 09:52:00,80.2,70.8,29.77,ENE,70,0.0,4.0,73,0.00,,,0.00,0,Wunderground v.1.15,2013-06-27 13:52:00,
2013-06-27 09:57:00,80.6,71.1,29.77,ENE,60,2.0,6.0,73,0.00,,,0.00,0,Wunderground v.1.15,2013-06-27 13:57:00,
2013-06-27 10:02:00,80.9,71.4,29.76,ENE,59,1.0,4.0,73,0.00,,,0.00,0,Wunderground v.1.15,2013-06-27 14:02:00,
2013-06-27 10:07:00,81.1,71.6,29.76,ENE,59,0.0,4.0,73,0.00,,,0.00,0,Wunderground v.1.15,2013-06-27 14:07:00,
2013-06-27 10:12:00,81.3,71.8,29.76,ENE,59,2.0,3.0,73,0.00,,,0.00,0,Wunderground v.1.15,2013-06-27 14:12:00,
2013-06-27 10:17:00,81.6,71.7,29.76,ENE,60,3.0,5.0,72,0.00,,,0.00,0,Wunderground v.1.15,2013-06-27 14:17:00,
2013-06-27 10:22:00,81.6,70.4,29.76,ENE,59,2.0,4.0,69,0.00,,,0.00,0,Wunderground v.1.15,2013-06-27 14:22:00,
2013-06-27 10:27:00,81.6,70.4,29.76,ENE,58,0.0,4.0,69,0.00,,,0.00,0,Wunderground v.1.15,2013-06-27 14:27:00,
2013-06-27 10:32:00,82.0,70.8,29.76,ENE,59,2.0,4.0,69,0.00,,,0.00,0,Wunderground v.1.15,2013-06-27 14:32:00,
2013-06-27 10:37:00,82.7,71.5,29.76,ENE,59,0.0,4.0,69,0.00,,,0.00,0,Wunderground v.1.15,2013-06-27 14:37:00,
2013-06-27 10:42:00,83.2,71.5,29.76,ENE,59,0.0,2.0,68,0.00,,,0.00,0,Wunderground v.1.15,2013-06-27 14:42:00,
2013-06-27 10:47:00,83.0,71.3,29.76,ENE,59,0.0,4.0,68,0.00,,,0.00,0,Wunderground v.1.15,2013-06-27 14:47:00,
2013-06-27 10:52:00,82.6,71.0,29.76,ENE,59,0.0,1.0,68,0.00,,,0.00,0,Wunderground v.1.15,2013-06-27 14:52:00,
2013-06-27 10:57:00,82.7,70.6,29.76,ENE,59,0.0,2.0,67,0.00,,,0.00,0,Wunderground v.1.15,2013-06-27 14:57:00,
2013-06-27 11:02:00,83.0,70.9,29.76,ENE,59,0.0,2.0,67,0.00,,,0.00,0,Wunderground v.1.15,2013-06-27 15:02:00,
2013-06-27 11:07:00,83.2,70.7,29.76,ENE,59,1.0,3.0,66,0.00,,,0.00,0,Wunderground v.1.15,2013-06-27 15:07:00,
2013-06-27 11:12:00,83.0,70.0,29.75,ENE,59,0.0,2.0,65,0.00,,,0.00,0,Wunderground v.1.15,2013-06-27 15:12:00,
2013-06-27 11:17:00,83.1,70.6,29.75,ENE,58,0.0,2.0,66,0.00,,,0.00,0,Wunderground v.1.15,2013-06-27 15:17:00,
2013-06-27 11:22:00,83.1,70.6,29.76,ENE,59,0.0,4.0,66,0.00,,,0.00,0,Wunderground v.1.15,2013-06-27 15:22:00,
2013-06-27 11:27:00,83.6,71.5,29.76,ENE,59,2.0,5.0,67,0.00,,,0.00,0,Wunderground v.1.15,2013-06-27 15:27:00,
2013-06-27 11:32:00,83.8,72.1,29.76,ENE,59,0.0,2.0,68,0.00,,,0.00,0,Wunderground v.1.15,2013-06-27 15:32:00,
2013-06-27 11:37:00,83.7,72.0,29.76,ESE,122,2.0,9.0,68,0.00,,,0.00,0,Wunderground v.1.15,2013-06-27 15:37:00,
2013-06-27 11:42:00,83.7,72.4,29.76,ESE,115,0.0,7.0,69,0.00,,,0.00,0,Wunderground v.1.15,2013-06-27 15:42:00,
2013-06-27 11:47:00,83.7,72.0,29.76,ESE,105,3.0,8.0,68,0.00,,,0.00,0,Wunderground v.1.15,2013-06-27 15:47:00,
2013-06-27 11:52:00,83.3,71.6,29.76,NE,45,3.0,5.0,68,0.00,,,0.00,0,Wunderground v.1.15,2013-06-27 15:52:00,
2013-06-27 11:57:00,83.1,71.0,29.75,SE,137,4.0,9.0,67,0.00,,,0.00,0,Wunderground v.1.15,2013-06-27 15:57:00,
2013-06-27 12:02:00,82.3,71.5,29.76,SSE,161,6.0,9.0,70,0.00,,,0.00,0,Wunderground v.1.15,2013-06-27 16:02:00,
2013-06-27 12:07:00,82.4,71.6,29.75,SE,130,7.0,10.0,70,0.00,,,0.00,0,Wunderground v.1.15,2013-06-27 16:07:00,
2013-06-27 12:12:00,82.3,71.5,29.75,East,92,9.0,9.0,70,0.00,,,0.00,0,Wunderground v.1.15,2013-06-27 16:12:00,
2013-06-27 12:17:00,82.5,71.7,29.75,ESE,120,1.0,9.0,70,0.00,,,0.00,0,Wunderground v.1.15,2013-06-27 16:17:00,
2013-06-27 12:22:00,83.1,71.9,29.75,SE,133,6.0,8.0,69,0.00,,,0.00,0,Wunderground v.1.15,2013-06-27 16:22:00,
2013-06-27 12:27:00,83.1,71.9,29.75,East,90,2.0,8.0,69,0.00,,,0.00,0,Wunderground v.1.15,2013-06-27 16:27:00,
2013-06-27 12:32:00,83.3,71.2,29.75,SE,144,8.0,10.0,67,0.00,,,0.00,0,Wunderground v.1.15,2013-06-27 16:32:00,
2013-06-27 12:37:00,83.6,71.9,29.75,East,95,3.0,11.0,68,0.00,,,0.00,0,Wunderground v.1.15,2013-06-27 16:37:00,
2013-06-27 12:42:00,84.4,71.8,29.75,ESE,116,0.0,6.0,66,0.00,,,0.00,0,Wunderground v.1.15,2013-06-27 16:42:00,
2013-06-27 12:47:00,84.9,71.8,29.75,ESE,115,4.0,9.0,65,0.00,,,0.00,0,Wunderground v.1.15,2013-06-27 16:47:00,
2013-06-27 12:52:00,85.5,71.9,29.74,ESE,115,4.0,8.0,64,0.00,,,0.00,0,Wunderground v.1.15,2013-06-27 16:52:00,
2013-06-27 12:57:00,85.2,71.6,29.74,ESE,113,3.0,11.0,64,0.00,,,0.00,0,Wunderground v.1.15,2013-06-27 16:57:00,
2013-06-27 13:02:00,84.8,71.7,29.74,ENE,74,6.0,12.0,65,0.00,,,0.00,0,Wunderground v.1.15,2013-06-27 17:02:00,
2013-06-27 13:07:00,84.6,71.1,29.74,SSE,155,1.0,12.0,64,0.00,,,0.00,0,Wunderground v.1.15,2013-06-27 17:07:00,
2013-06-27 13:12:00,84.3,71.7,29.74,SE,129,2.0,7.0,66,0.00,,,0.00,0,Wunderground v.1.15,2013-06-27 17:12:00,
2013-06-27 13:17:00,84.7,71.6,29.74,SSE,147,4.0,9.0,65,0.00,,,0.00,0,Wunderground v.1.15,2013-06-27 17:17:00,
2013-06-27 13:22:00,84.7,71.6,29.73,SE,143,4.0,13.0,65,0.00,,,0.00,0,Wunderground v.1.15,2013-06-27 17:22:00,
2013-06-27 13:27:00,85.0,71.5,29.73,South,182,6.0,13.0,64,0.00,,,0.00,0,Wunderground v.1.15,2013-06-27 17:27:00,
2013-06-27 13:32:00,84.7,71.2,29.73,East,79,2.0,7.0,64,0.00,,,0.00,0,Wunderground v.1.15,2013-06-27 17:32:00,
2013-06-27 13:37:00,84.4,70.9,29.73,South,171,4.0,9.0,64,0.00,,,0.00,0,Wunderground v.1.15,2013-06-27 17:37:00,
2013-06-27 13:42:00,84.2,70.2,29.73,ESE,122,9.0,12.0,63,0.00,,,0.00,0,Wunderground v.1.15,2013-06-27 17:42:00,
2013-06-27 13:47:00,84.4,70.4,29.73,ESE,109,4.0,12.0,63,0.00,,,0.00,0,Wunderground v.1.15,2013-06-27 17:47:00,
2013-06-27 13:52:00,84.2,69.8,29.73,SW,226,2.0,9.0,62,0.00,,,0.00,0,Wunderground v.1.15,2013-06-27 17:52:00,
2013-06-27 13:57:00,84.3,69.9,29.72,ENE,63,0.0,9.0,62,0.00,,,0.00,0,Wunderground v.1.15,2013-06-27 17:57:00,
2013-06-27 14:03:00,84.3,70.3,29.72,SE,125,8.0,8.0,63,0.00,,,0.00,0,Wunderground v.1.15,2013-06-27 18:03:00,
2013-06-27 14:08:00,83.9,69.0,29.72,SE,144,2.0,13.0,61,0.00,,,0.00,0,Wunderground v.1.15,2013-06-27 18:08:00,
2013-06-27 14:13:00,83.6,69.2,29.72,ESE,105,2.0,8.0,62,0.00,,,0.00,0,Wunderground v.1.15,2013-06-27 18:13:00,
2013-06-27 14:18:00,83.0,68.6,29.72,SSE,149,10.0,10.0,62,0.00,,,0.00,0,Wunderground v.1.15,2013-06-27 18:18:00,
2013-06-27 14:23:00,82.8,68.9,29.72,SE,132,6.0,10.0,63,0.00,,,0.00,0,Wunderground v.1.15,2013-06-27 18:23:00,
2013-06-27 14:28:00,83.0,69.6,29.73,SW,235,2.0,10.0,64,0.00,,,0.00,0,Wunderground v.1.15,2013-06-27 18:28:00,
2013-06-27 14:33:00,82.6,68.7,29.72,SE,131,6.0,13.0,63,0.00,,,0.00,0,Wunderground v.1.15,2013-06-27 18:33:00,
2013-06-27 14:38:00,81.9,69.0,29.72,SE,143,3.0,13.0,65,0.00,,,0.00,0,Wunderground v.1.15,2013-06-27 18:38:00,
2013-06-27 14:42:00,82.0,69.1,29.72,SE,129,4.0,8.0,65,0.00,,,0.00,0,Wunderground v.1.15,2013-06-27 18:42:00,
2013-06-27 14:48:00,82.2,69.3,29.72,SE,139,6.0,9.0,65,0.00,,,0.00,0,Wunderground v.1.15,2013-06-27 18:48:00,
2013-06-27 14:53:00,81.4,68.5,29.72,SE,127,2.0,12.0,65,0.00,,,0.00,0,Wunderground v.1.15,2013-06-27 18:53:00,
2013-06-27 14:58:00,81.5,69.0,29.72,East,81,2.0,12.0,66,0.00,,,0.00,0,Wunderground v.1.15,2013-06-27 18:58:00,
2013-06-27 15:03:00,82.0,69.5,29.72,ESE,110,0.0,5.0,66,0.00,,,0.00,0,Wunderground v.1.15,2013-06-27 19:03:00,
2013-06-27 15:08:00,82.8,69.8,29.71,South,169,5.0,8.0,65,0.00,,,0.00,0,Wunderground v.1.15,2013-06-27 19:08:00,
2013-06-27 15:13:00,83.3,70.8,29.72,SE,131,2.0,7.0,66,0.00,,,0.00,0,Wunderground v.1.15,2013-06-27 19:13:00,
2013-06-27 15:18:00,84.1,70.6,29.71,SSE,152,7.0,7.0,64,0.00,,,0.00,0,Wunderground v.1.15,2013-06-27 19:18:00,
2013-06-27 15:23:00,83.9,69.0,29.71,SE,138,4.0,11.0,61,0.00,,,0.00,0,Wunderground v.1.15,2013-06-27 19:23:00,
2013-06-27 15:28:00,83.8,69.4,29.71,SSE,157,0.0,11.0,62,0.00,,,0.00,0,Wunderground v.1.15,2013-06-27 19:28:00,
2013-06-27 15:33:00,83.9,69.5,29.71,SSE,152,4.0,11.0,62,0.00,,,0.00,0,Wunderground v.1.15,2013-06-27 19:33:00,
2013-06-27 15:38:00,83.3,69.4,29.70,ENE,74,3.0,11.0,63,0.00,,,0.00,0,Wunderground v.1.15,2013-06-27 19:38:00,
2013-06-27 15:43:00,83.4,69.9,29.70,ESE,109,4.0,7.0,64,0.00,,,0.00,0,Wunderground v.1.15,2013-06-27 19:43:00,
2013-06-27 15:48:00,83.6,70.1,29.70,ESE,117,3.0,13.0,64,0.00,,,0.00,0,Wunderground v.1.15,2013-06-27 19:48:00,
2013-06-27 15:53:00,83.9,70.0,29.70,SE,130,6.0,9.0,63,0.00,,,0.00,0,Wunderground v.1.15,2013-06-27 19:53:00,
2013-06-27 15:58:00,83.6,70.1,29.69,ESE,121,4.0,14.0,64,0.00,,,0.00,0,Wunderground v.1.15,2013-06-27 19:58:00,
2013-06-27 16:03:00,83.5,70.0,29.69,SE,138,1.0,11.0,64,0.00,,,0.00,0,Wunderground v.1.15,2013-06-27 20:03:00,
2013-06-27 16:08:00,83.3,70.3,29.69,SSE,163,6.0,11.0,65,0.00,,,0.00,0,Wunderground v.1.15,2013-06-27 20:08:00,
2013-06-27 16:13:00,83.2,69.8,29.69,East,94,2.0,10.0,64,0.00,,,0.00,0,Wunderground v.1.15,2013-06-27 20:13:00,
2013-06-27 16:18:00,83.1,70.6,29.68,SE,128,2.0,10.0,66,0.00,,,0.00,0,Wunderground v.1.15,2013-06-27 20:18:00,
2013-06-27 16:23:00,82.5,70.0,29.68,SSE,152,4.0,14.0,66,0.00,,,0.00,0,Wunderground v.1.15,2013-06-27 20:23:00,
2013-06-27 16:28:00,82.0,70.4,29.69,South,173,5.0,14.0,68,0.00,,,0.00,0,Wunderground v.1.15,2013-06-27 20:28:00,
2013-06-27 16:33:00,81.8,69.8,29.68,SE,125,5.0,12.0,67,0.00,,,0.00,0,Wunderground v.1.15,2013-06-27 20:33:00,
2013-06-27 16:38:00,81.6,70.4,29.69,SE,126,2.0,12.0,69,0.00,,,0.00,0,Wunderground v.1.15,2013-06-27 20:38:00,
2013-06-27 16:44:00,82.8,70.3,29.68,SE,140,7.0,7.0,66,0.00,,,0.00,0,Wunderground v.1.15,2013-06-27 20:44:00,
2013-06-27 16:49:00,81.7,69.7,29.68,SE,128,6.0,9.0,67,0.00,,,0.00,0,Wunderground v.1.15,2013-06-27 20:49:00,
2013-06-27 16:54:00,81.5,69.9,29.68,SSE,165,1.0,8.0,68,0.00,,,0.00,0,Wunderground v.1.15,2013-06-27 20:54:00,
2013-06-27 16:56:00,81.5,69.9,29.68,SE,144,11.0,11.0,68,0.00,,,0.00,0,Wunderground v.1.15,2013-06-27 20:56:00,
2013-06-27 17:01:00,80.9,69.3,29.67,ESE,121,3.0,7.0,68,0.00,,,0.00,0,Wunderground v.1.15,2013-06-27 21:01:00,
2013-06-27 17:06:00,80.6,69.1,29.67,SE,126,3.0,9.0,68,0.00,,,0.00,0,Wunderground v.1.15,2013-06-27 21:06:00,
2013-06-27 17:11:00,80.4,69.3,29.66,ESE,116,4.0,7.0,69,0.00,,,0.00,0,Wunderground v.1.15,2013-06-27 21:11:00,
2013-06-27 17:16:00,80.1,69.0,29.66,South,191,5.0,10.0,69,0.00,,,0.00,0,Wunderground v.1.15,2013-06-27 21:16:00,
2013-06-27 17:21:00,79.9,69.2,29.66,SE,140,6.0,6.0,70,0.00,,,0.00,0,Wunderground v.1.15,2013-06-27 21:21:00,
2013-06-27 17:26:00,79.8,69.1,29.66,SE,137,5.0,13.0,70,0.00,,,0.00,0,Wunderground v.1.15,2013-06-27 21:26:00,
2013-06-27 17:31:00,79.6,69.0,29.65,East,93,5.0,7.0,70,0.00,,,0.00,0,Wunderground v.1.15,2013-06-27 21:31:00,
2013-06-27 17:36:00,79.2,68.6,29.66,SE,139,15.0,15.0,70,0.00,,,0.00,0,Wunderground v.1.15,2013-06-27 21:36:00,
2013-06-27 17:42:00,78.8,68.6,29.66,SE,132,5.0,10.0,71,0.00,,,0.00,0,Wunderground v.1.15,2013-06-27 21:42:00,
2013-06-27 17:47:00,79.2,68.6,29.66,SSE,166,4.0,13.0,70,0.00,,,0.00,0,Wunderground v.1.15,2013-06-27 21:47:00,
2013-06-27 17:52:00,79.0,68.8,29.66,SSE,164,5.0,11.0,71,0.00,,,0.00,0,Wunderground v.1.15,2013-06-27 21:52:00,
2013-06-27 17:57:00,79.1,68.9,29.66,ENE,62,2.0,11.0,71,0.00,,,0.00,0,Wunderground v.1.15,2013-06-27 21:57:00,
2013-06-27 18:03:00,79.0,68.8,29.66,SE,133,6.0,10.0,71,0.00,,,0.00,0,Wunderground v.1.15,2013-06-27 22:03:00,
2013-06-27 18:08:00,79.1,69.3,29.66,SE,131,9.0,10.0,72,0.00,,,0.00,0,Wunderground v.1.15,2013-06-27 22:08:00,
2013-06-27 18:14:00,78.5,68.7,29.66,South,170,4.0,9.0,72,0.00,,,0.00,0,Wunderground v.1.15,2013-06-27 22:14:00,
2013-06-27 18:19:00,77.8,68.0,29.65,East,91,4.0,9.0,72,0.00,,,0.00,0,Wunderground v.1.15,2013-06-27 22:19:00,
2013-06-27 18:24:00,77.5,68.2,29.65,South,180,2.0,11.0,73,0.00,,,0.00,0,Wunderground v.1.15,2013-06-27 22:24:00,
2013-06-27 18:29:00,77.2,68.3,29.65,SE,142,4.0,11.0,74,0.00,,,0.00,0,Wunderground v.1.15,2013-06-27 22:29:00,
2013-06-27 18:34:00,76.7,68.2,29.65,SSE,158,5.0,12.0,75,0.00,,,0.00,0,Wunderground v.1.15,2013-06-27 22:34:00,
2013-06-27 18:40:00,76.4,68.7,29.65,SE,132,6.0,16.0,77,0.00,,,0.00,0,Wunderground v.1.15,2013-06-27 22:40:00,
2013-06-27 18:45:00,76.3,68.6,29.64,SE,131,7.0,16.0,77,0.00,,,0.00,0,Wunderground v.1.15,2013-06-27 22:45:00,
2013-06-27 18:51:00,76.2,68.8,29.64,SE,124,0.0,7.0,78,0.00,,,0.00,0,Wunderground v.1.15,2013-06-27 22:51:00,
2013-06-27 18:56:00,76.1,68.7,29.64,SE,141,1.0,7.0,78,0.00,,,0.00,0,Wunderground v.1.15,2013-06-27 22:56:00,
2013-06-27 19:01:00,75.8,68.4,29.63,ENE,71,1.0,5.0,78,0.00,,,0.00,0,Wunderground v.1.15,2013-06-27 23:01:00,
2013-06-27 19:06:00,75.4,68.4,29.63,ESE,123,4.0,10.0,79,0.00,,,0.00,0,Wunderground v.1.15,2013-06-27 23:06:00,
2013-06-27 19:11:00,75.2,68.6,29.63,SE,137,3.0,6.0,80,0.00,,,0.00,0,Wunderground v.1.15,2013-06-27 23:11:00,
2013-06-27 19:17:00,75.1,68.5,29.63,NE,54,1.0,8.0,80,0.00,,,0.00,0,Wunderground v.1.15,2013-06-27 23:17:00,
2013-06-27 19:22:00,75.0,68.8,29.64,SE,129,11.0,11.0,81,0.00,,,0.00,0,Wunderground v.1.15,2013-06-27 23:22:00,
2013-06-27 19:27:00,75.0,68.8,29.64,SE,143,2.0,11.0,81,0.00,,,0.00,0,Wunderground v.1.15,2013-06-27 23:27:00,
2013-06-27 19:32:00,74.9,69.0,29.64,SE,146,2.0,8.0,82,0.00,,,0.00,0,Wunderground v.1.15,2013-06-27 23:32:00,
2013-06-27 19:38:00,74.8,68.6,29.63,SE,130,6.0,14.0,81,0.00,,,0.00,0,Wunderground v.1.15,2013-06-27 23:38:00,
2013-06-27 19:43:00,74.8,68.9,29.63,South,187,0.0,8.0,82,0.00,,,0.00,0,Wunderground v.1.15,2013-06-27 23:43:00,
2013-06-27 19:48:00,74.8,68.9,29.64,SW,228,1.0,8.0,82,0.00,,,0.00,0,Wunderground v.1.15,2013-06-27 23:48:00,
2013-06-27 19:53:00,74.7,68.8,29.63,SE,130,4.0,11.0,82,0.00,,,0.00,0,Wunderground v.1.15,2013-06-27 23:53:00,
2013-06-27 19:59:00,74.8,68.9,29.62,WSW,256,3.0,11.0,82,0.00,,,0.00,0,Wunderground v.1.15,2013-06-27 23:59:00,
2013-06-27 20:04:00,74.9,69.0,29.61,SE,139,5.0,17.0,82,0.00,,,0.00,0,Wunderground v.1.15,2013-06-28 00:04:00,
2013-06-27 20:09:00,74.9,69.4,29.61,SE,143,5.0,17.0,83,0.00,,,0.00,0,Wunderground v.1.15,2013-06-28 00:09:00,
2013-06-27 20:15:00,74.9,69.4,29.61,SSE,162,7.0,11.0,83,0.00,,,0.00,0,Wunderground v.1.15,2013-06-28 00:15:00,
2013-06-27 20:20:00,74.9,69.4,29.61,SE,132,2.0,2.0,83,0.00,,,0.00,0,Wunderground v.1.15,2013-06-28 00:20:00,
2013-06-27 20:25:00,75.0,69.8,29.61,ESE,123,2.0,8.0,84,0.00,,,0.00,0,Wunderground v.1.15,2013-06-28 00:25:00,
2013-06-27 20:30:00,75.0,69.8,29.60,SE,140,5.0,5.0,84,0.00,,,0.00,0,Wunderground v.1.15,2013-06-28 00:30:00,
2013-06-27 20:35:00,74.9,69.7,29.60,SSE,150,4.0,9.0,84,0.00,,,0.00,0,Wunderground v.1.15,2013-06-28 00:35:00,
2013-06-27 20:40:00,74.9,70.1,29.60,ESE,116,3.0,3.0,85,0.00,,,0.00,0,Wunderground v.1.15,2013-06-28 00:40:00,
2013-06-27 20:45:00,75.0,70.2,29.60,WNW,284,2.0,12.0,85,0.00,,,0.00,0,Wunderground v.1.15,2013-06-28 00:45:00,
2013-06-27 20:50:00,75.0,70.5,29.59,SSW,199,3.0,3.0,86,0.00,,,0.00,0,Wunderground v.1.15,2013-06-28 00:50:00,
2013-06-27 20:55:00,75.1,70.6,29.59,SE,139,4.0,13.0,86,0.00,,,0.00,0,Wunderground v.1.15,2013-06-28 00:55:00,
2013-06-27 21:01:00,75.0,70.5,29.60,South,187,12.0,12.0,86,0.00,,,0.00,0,Wunderground v.1.15,2013-06-28 01:01:00,
2013-06-27 21:06:00,75.0,70.5,29.60,SW,231,5.0,12.0,86,0.00,,,0.00,0,Wunderground v.1.15,2013-06-28 01:06:00,
2013-06-27 21:11:00,75.0,70.5,29.60,East,96,5.0,5.0,86,0.00,,,0.00,0,Wunderground v.1.15,2013-06-28 01:11:00,
2013-06-27 21:16:00,75.0,70.5,29.60,SE,140,3.0,10.0,86,0.00,,,0.00,0,Wunderground v.1.15,2013-06-28 01:16:00,
2013-06-27 21:21:00,75.0,70.5,29.60,ESE,112,6.0,6.0,86,0.00,,,0.00,0,Wunderground v.1.15,2013-06-28 01:21:00,
2013-06-27 21:27:00,74.9,70.4,29.60,ESE,114,4.0,11.0,86,0.00,,,0.00,0,Wunderground v.1.15,2013-06-28 01:27:00,
2013-06-27 21:32:00,74.8,70.3,29.60,SSE,150,6.0,6.0,86,0.00,,,0.00,0,Wunderground v.1.15,2013-06-28 01:32:00,
2013-06-27 21:37:00,74.7,70.2,29.60,SSE,155,5.0,6.0,86,0.00,,,0.00,0,Wunderground v.1.15,2013-06-28 01:37:00,
2013-06-27 21:42:00,74.7,70.2,29.60,SE,136,4.0,4.0,86,0.00,,,0.00,0,Wunderground v.1.15,2013-06-28 01:42:00,
2013-06-27 21:47:00,74.6,70.1,29.60,SSE,153,4.0,12.0,86,0.00,,,0.00,0,Wunderground v.1.15,2013-06-28 01:47:00,
2013-06-27 21:52:00,74.7,70.2,29.60,SW,217,3.0,6.0,86,0.00,,,0.00,0,Wunderground v.1.15,2013-06-28 01:52:00,
2013-06-27 21:58:00,74.8,70.3,29.60,SE,129,2.0,11.0,86,0.00,,,0.00,0,Wunderground v.1.15,2013-06-28 01:58:00,
2013-06-27 22:04:00,74.7,70.2,29.60,SE,130,4.0,9.0,86,0.00,,,0.00,0,Wunderground v.1.15,2013-06-28 02:04:00,
2013-06-27 22:09:00,74.8,70.3,29.60,SW,225,0.0,9.0,86,0.00,,,0.00,0,Wunderground v.1.15,2013-06-28 02:09:00,
2013-06-27 22:14:00,74.7,70.2,29.61,South,179,6.0,6.0,86,0.00,,,0.00,0,Wunderground v.1.15,2013-06-28 02:14:00,
2013-06-27 22:19:00,74.7,70.2,29.60,SE,133,2.0,8.0,86,0.00,,,0.00,0,Wunderground v.1.15,2013-06-28 02:19:00,
2013-06-27 22:24:00,74.7,70.2,29.60,North,353,9.0,9.0,86,0.00,,,0.00,0,Wunderground v.1.15,2013-06-28 02:24:00,
2013-06-27 22:30:00,74.7,70.2,29.60,SSW,200,2.0,5.0,86,0.00,,,0.00,0,Wunderground v.1.15,2013-06-28 02:30:00,
2013-06-27 22:35:00,74.6,70.1,29.60,WSW,245,4.0,8.0,86,0.00,,,0.00,0,Wunderground v.1.15,2013-06-28 02:35:00,
2013-06-27 22:40:00,74.6,69.8,29.60,North,4,6.0,6.0,85,0.00,,,0.00,0,Wunderground v.1.15,2013-06-28 02:40:00,
2013-06-27 22:45:00,74.8,70.3,29.60,SE,144,6.0,9.0,86,0.00,,,0.00,0,Wunderground v.1.15,2013-06-28 02:45:00,
2013-06-27 22:50:00,74.8,70.0,29.60,West,265,5.0,5.0,85,0.00,,,0.00,0,Wunderground v.1.15,2013-06-28 02:50:00,
2013-06-27 22:55:00,74.8,70.0,29.60,SSE,149,5.0,9.0,85,0.00,,,0.00,0,Wunderground v.1.15,2013-06-28 02:55:00,
2013-06-27 23:00:00,74.8,69.6,29.60,WSW,255,7.0,7.0,84,0.00,,,0.00,0,Wunderground v.1.15,2013-06-28 03:00:00,
2013-06-27 23:06:00,74.8,69.6,29.60,WSW,256,6.0,8.0,84,0.00,,,0.00,0,Wunderground v.1.15,2013-06-28 03:06:00,
2013-06-27 23:11:00,74.7,69.5,29.60,SE,140,4.0,7.0,84,0.00,,,0.00,0,Wunderground v.1.15,2013-06-28 03:11:00,
2013-06-27 23:16:00,74.8,69.3,29.60,South,186,3.0,10.0,83,0.00,,,0.00,0,Wunderground v.1.15,2013-06-28 03:16:00,
2013-06-27 23:21:00,74.7,69.2,29.60,SW,220,5.0,7.0,83,0.00,,,0.00,0,Wunderground v.1.15,2013-06-28 03:21:00,
2013-06-27 23:26:00,74.7,69.2,29.60,NNE,19,1.0,7.0,83,0.00,,,0.00,0,Wunderground v.1.15,2013-06-28 03:26:00,
2013-06-27 23:32:00,74.8,68.9,29.60,WSW,244,3.0,7.0,82,0.00,,,0.00,0,Wunderground v.1.15,2013-06-28 03:32:00,
2013-06-27 23:37:00,74.6,69.1,29.60,SSW,196,1.0,8.0,83,0.00,,,0.00,0,Wunderground v.1.15,2013-06-28 03:37:00,
2013-06-27 23:42:00,74.6,69.1,29.60,South,181,3.0,6.0,83,0.00,,,0.00,0,Wunderground v.1.15,2013-06-28 03:42:00,
2013-06-27 23:47:00,74.4,68.9,29.60,SE,136,2.0,6.0,83,0.00,,,0.00,0,Wunderground v.1.15,2013-06-28 03:47:00,
2013-06-27 23:52:00,74.5,69.0,29.60,West,271,2.0,9.0,83,0.00,,,0.00,0,Wunderground v.1.15,2013-06-28 03:52:00,
2013-06-27 23:57:00,74.3,68.8,29.60,SSW,194,3.0,9.0,83,0.00,,,0.00,0,Wunderground v.1.15,2013-06-28 03:57:00,